Home > Time Zones > World Clock > Weather > Italy > Bari > Past weeks

Flag for Italy Weather past 2 weeks in Bari, Italy

Now
68 °F

Clear.


Feels Like: 68 °F
Forecast: 66 / 86 °F
Wind: 7 mph from Northwest

Location: Bari / Palese Macchie

Current Time: Jul 25, 2014 at 6:40:49 AM

Latest Report: Jul 25, 2014 at 5:50 AM


Visibility: 10 mi

Pressure: 29.89 "Hg

Humidity: 88%

Dew point: 64 °F

Location of BariLocation

Historic Weather in Bari — Graph

°F

Bari temperature yesterday

Maximum temperature yesterday: 82 °F (at 1:50 PM)
Minimum temperature yesterday: 64 °F (at 4:20 AM)
Average temperature yesterday: 74 °F

Past Weeks' High & Low Weather Summary

 TemperatureHumidityPressure
High90 °F (Jul 20, 9:50 AM)100% (Jul 23, 1:50 AM)30.01 "Hg (Jul 23, 1:50 AM)
Low63 °F (Jul 12, 3:50 AM)22% (Jul 10, 2:50 PM)29.65 "Hg (Jul 10, 5:20 PM)
Average77 °F62%29.88 "Hg
* Reported Jul 10 4:20 AM — Jul 25 4:50 AM, Bari, Weather by CustomWeather, © 2014

Note: Actual official high and low records may vary slightly from our data, if they occured in-between our weather recording intervals... More about our weather records

Advertising

Bari weather history for previous 24 hours

 ConditionsComfort  
Time TempWeatherWind HumidityBarometerVisibility
4:50 AM
Jul 25
70 °FClear.5 mph83%29.89 "Hg10 mi
4:20 AM70 °FClear.5 mph83%29.89 "Hg10 mi
3:50 AM70 °FClear.5 mph83%29.89 "Hg10 mi
3:20 AM70 °FClear.5 mph83%29.89 "Hg10 mi
2:50 AM70 °FClear.5 mph83%29.89 "Hg10 mi
2:20 AM70 °FClear.5 mph83%29.89 "Hg10 mi
1:50 AM70 °FClear.5 mph83%29.89 "Hg10 mi
1:20 AM70 °FClear.5 mph83%29.89 "Hg10 mi
12:50 AM70 °FClear.5 mph83%29.89 "Hg10 mi
12:20 AM70 °FClear.5 mph83%29.89 "Hg10 mi
11:50 PM
Jul 24
72 °FClear.3 mph83%29.89 "Hg10 mi
11:20 PM72 °FClear.3 mph83%29.89 "Hg10 mi
10:50 PM73 °FClear.5 mph78%29.89 "Hg10 mi
10:20 PM73 °FClear.3 mph78%29.89 "Hg10 mi
9:50 PM73 °FClear.No wind78%29.89 "Hg10 mi
9:20 PM73 °FClear.1 mph78%29.86 "Hg10 mi
8:50 PM75 °FPassing clouds.2 mph74%29.86 "HgN/A
8:20 PM77 °FPassing clouds.2 mph65%29.86 "HgN/A
7:50 PM77 °FPassing clouds.2 mph65%29.86 "HgN/A
7:20 PM77 °FPassing clouds.2 mph65%29.86 "HgN/A
6:50 PM77 °FPassing clouds.2 mph65%29.86 "HgN/A
6:20 PM77 °FSunny.7 mph65%29.83 "Hg10 mi
5:50 PM77 °FSunny.8 mph65%29.83 "Hg10 mi
5:20 PM79 °FSunny.9 mph58%29.83 "Hg10 mi
4:50 PM81 °FPassing clouds.8 mph51%29.83 "HgN/A
4:20 PM82 °FPassing clouds.9 mph48%29.83 "HgN/A
3:50 PM81 °FSunny.10 mph51%29.86 "Hg10 mi
3:20 PM81 °FPassing clouds.10 mph51%29.86 "HgN/A
2:50 PM82 °FPassing clouds.8 mph45%29.86 "HgN/A
2:20 PM82 °FPassing clouds.8 mph48%29.86 "HgN/A
1:50 PM82 °FPassing clouds.8 mph45%29.86 "HgN/A
1:20 PM81 °FPassing clouds.9 mph51%29.86 "HgN/A
12:50 PM81 °FPassing clouds.8 mph54%29.86 "HgN/A
12:20 PM81 °FPassing clouds.9 mph54%29.86 "HgN/A
11:50 AM81 °FPassing clouds.6 mph58%29.86 "HgN/A
11:20 AM79 °FPassing clouds.9 mph61%29.86 "HgN/A
10:20 AM81 °FSunny.3 mph51%29.83 "Hg10 mi
9:50 AM79 °FSunny.6 mph51%29.83 "Hg10 mi
9:20 AM77 °FSunny.8 mph57%29.83 "Hg10 mi
8:50 AM75 °FSunny.6 mph57%29.83 "Hg10 mi
8:20 AM75 °FSunny.6 mph57%29.83 "Hg10 mi
7:20 AM70 °FSunny.6 mph69%29.83 "Hg10 mi
6:50 AM68 °FSunny.6 mph73%29.83 "Hg10 mi
6:20 AM66 °FClear.6 mph78%29.83 "Hg10 mi
Weather by CustomWeather, © 2014

See weather overviewHow to use our weather pages